Date String (YYYY-MM-DD hh:mm:ss) UTC,Instrument flags,absolute air pressure of the measurement (hPa),sample flow rate (lpm),inlet stack bypass flow (lpm),air temperature of the measurement (°C),ambient temperature measured by the external sensor (°C),aerosol sample conditioner tube jacket temperature (°C),OPC LED temperature (°C),internal box temperature (°C),relative humidity of the measurement (%),span deviation,mass concentration of particles derived from Lorenz-Mie calculation of OPC scattering (μg/m³),mass concentration of particles derived from Lorenz-Mie calculation of OPC scattering (μg/m³),mass concentration of particles derived from Lorenz-Mie calculation of OPC scattering (μg/m³)
DateTimeUTC,F1_M11,P_M11,Q1_M11,Q2_M11,T1_M11,T2_M11,T3_M11,T4_M11,T5_M11,U1_M11,ZSPAN_M11,X0_M11,X2_M11,X1_M11
2023-07-26 21:00:00,SystemResetWarning,0834.0,5.01,000.00,031.1,027.2,000.0,038.7,031.0,33.7,0000.0,0020.70,0005.88,0003.97
2023-07-26 21:01:00,SystemResetWarning,0834.0,4.98,000.00,031.1,026.5,000.0,038.6,031.0,33.9,0000.0,0020.71,0005.88,0003.97
2023-07-26 21:02:00,SystemResetWarning,0834.0,5.01,000.00,031.1,025.2,000.0,038.6,030.8,33.4,0000.0,0020.95,0005.89,0003.98
2023-07-26 21:03:00,SystemResetWarning,0834.0,4.99,000.00,031.0,024.8,000.0,038.5,030.6,34.5,0000.0,0021.24,0005.82,0003.99
2023-07-26 21:04:00,SystemResetWarning,0833.8,5.03,000.00,030.9,025.0,000.0,038.5,030.5,32.9,0000.0,0020.87,0005.76,0004.00
2023-07-26 21:05:00,SystemResetWarning,0833.8,4.97,000.00,030.9,025.4,000.0,038.6,030.6,24.7,0000.0,0021.12,0005.68,0003.98
2023-07-26 21:06:00,SystemResetWarning,0833.8,5.01,000.00,030.9,025.9,000.0,038.6,030.7,21.8,0000.0,0019.69,0005.66,0003.95
2023-07-26 21:07:00,SystemResetWarning,0833.8,5.02,000.00,030.9,026.4,000.0,038.6,030.8,22.3,0000.0,0019.57,0005.63,0003.94
2023-07-26 21:08:00,SystemResetWarning,0833.8,5.00,000.00,031.0,026.8,000.0,038.7,030.9,23.4,0000.0,0019.35,0005.57,0003.93
2023-07-26 21:09:00,SystemResetWarning,0833.8,5.00,000.00,031.0,027.2,000.0,038.7,031.0,21.5,0000.0,0018.73,0005.54,0003.92
2023-07-26 21:10:00,SystemResetWarning,0833.8,5.00,000.00,031.0,027.3,000.0,038.7,031.1,22.2,0000.0,0019.17,0005.55,0003.92
2023-07-26 21:11:00,SystemResetWarning,0833.7,4.98,000.00,031.0,026.0,000.0,038.6,031.0,23.4,0000.0,0017.52,0005.50,0003.93
2023-07-26 21:12:00,SystemResetWarning,0833.7,5.01,000.00,030.9,024.9,000.0,038.5,030.8,22.2,0000.0,0016.43,0005.42,0003.91
2023-07-26 21:13:00,SystemResetWarning,0833.7,5.01,000.00,030.8,024.9,000.0,038.4,030.6,26.8,0000.0,0015.84,0005.33,0003.87
2023-07-26 21:14:00,SystemResetWarning,0833.7,4.99,000.00,030.7,025.2,000.0,038.5,030.5,30.7,0000.0,0015.59,0005.33,0003.85
2023-07-26 21:15:00,SystemResetWarning,0833.7,5.00,000.00,030.6,025.7,000.0,038.5,030.5,31.6,0000.0,0015.81,0005.29,0003.83
2023-07-26 21:16:00,SystemResetWarning,0833.7,4.99,000.00,030.5,026.1,000.0,038.5,030.7,34.0,0000.0,0014.94,0005.25,0003.83
2023-07-26 21:17:00,SystemResetWarning,0833.7,5.00,000.00,030.5,026.6,000.0,038.5,030.8,34.0,0000.0,0014.81,0005.18,0003.84
2023-07-26 21:18:00,SystemResetWarning,0833.7,5.00,000.00,030.5,027.0,000.0,038.5,030.9,33.9,0000.0,0015.01,0005.10,0003.84
2023-07-26 21:19:00,SystemResetWarning,0833.7,5.00,000.00,030.5,027.3,000.0,038.5,030.9,32.4,0000.0,0014.84,0005.10,0003.84
2023-07-26 21:20:00,SystemResetWarning,0833.7,4.99,000.00,030.5,026.9,000.0,038.5,031.0,31.3,0000.0,0014.54,0005.12,0003.85
2023-07-26 21:21:00,SystemResetWarning,0833.7,4.99,000.00,030.5,025.5,000.0,038.3,030.8,29.5,0000.0,0013.93,0005.01,0003.80
2023-07-26 21:22:00,SystemResetWarning,0833.7,5.02,000.00,030.4,024.9,000.0,038.2,030.6,30.7,0000.0,0013.81,0004.79,0003.66
2023-07-26 21:23:00,SystemResetWarning,0833.7,5.00,000.00,030.3,025.1,000.0,038.2,030.4,29.9,0000.0,0013.37,0004.59,0003.53
2023-07-26 21:24:00,SystemResetWarning,0833.8,5.00,000.00,030.1,025.5,000.0,038.3,030.4,30.1,0000.0,0012.86,0004.36,0003.38
2023-07-26 21:25:00,SystemResetWarning,0833.8,4.99,000.00,030.1,025.9,000.0,038.3,030.5,30.7,0000.0,0011.88,0004.11,0003.23
2023-07-26 21:26:00,SystemResetWarning,0833.8,5.00,000.00,030.1,026.4,000.0,038.3,030.6,29.8,0000.0,0010.58,0003.90,0003.06
2023-07-26 21:27:00,SystemResetWarning,0833.8,5.00,000.00,030.1,026.8,000.0,038.3,030.7,29.6,0000.0,0009.60,0003.67,0002.80
2023-07-26 21:28:00,SystemResetWarning,0833.8,5.00,000.00,030.1,027.2,000.0,038.3,030.8,27.7,0000.0,0009.36,0003.49,0002.57
2023-07-26 21:29:00,SystemResetWarning,0833.9,4.99,000.00,030.1,027.4,000.0,038.3,030.9,27.9,0000.0,0008.84,0003.31,0002.29
2023-07-26 21:30:00,SystemResetWarning,0833.9,4.98,000.00,030.1,026.5,000.0,038.1,030.8,29.2,0000.0,0008.86,0003.17,0002.13
2023-07-26 21:31:00,SystemResetWarning,0833.9,5.00,000.00,030.0,025.2,000.0,038.0,030.6,33.7,0000.0,0009.36,0003.02,0002.02
2023-07-26 21:32:00,SystemResetWarning,0833.9,5.01,000.00,029.9,025.1,000.0,037.9,030.5,32.2,0000.0,0008.85,0003.02,0002.00
2023-07-26 21:33:00,SystemResetWarning,0834.0,5.01,000.00,029.8,025.4,000.0,038.0,030.4,30.9,0000.0,0009.04,0003.24,0002.17
2023-07-26 21:34:00,SystemResetWarning,0834.0,4.99,000.00,029.8,025.8,000.0,038.0,030.4,30.9,0000.0,0009.14,0003.45,0002.40
2023-07-26 21:35:00,SystemResetWarning,0834.0,5.00,000.00,029.7,026.3,000.0,038.0,030.6,29.9,0000.0,0009.62,0003.66,0002.65
2023-07-26 21:36:00,SystemResetWarning,0834.0,5.00,000.00,029.7,026.7,000.0,038.0,030.7,30.3,0000.0,0010.21,0003.81,0002.86
2023-07-26 21:37:00,SystemResetWarning,0834.1,5.00,000.00,029.7,027.1,000.0,038.0,030.8,32.0,0000.0,0010.90,0003.93,0003.04
2023-07-26 21:38:00,SystemResetWarning,0834.1,5.01,000.00,029.8,027.4,000.0,038.0,030.8,32.0,0000.0,0011.29,0004.06,0003.17
2023-07-26 21:39:00,SystemResetWarning,0834.1,4.98,000.00,029.8,026.6,000.0,037.9,030.7,34.2,0000.0,0011.60,0004.23,0003.27
2023-07-26 21:40:00,SystemResetWarning,0834.1,5.01,000.00,029.7,025.3,000.0,037.8,030.5,33.9,0000.0,0011.66,0004.39,0003.38
2023-07-26 21:41:00,SystemResetWarning,0834.1,5.00,000.00,029.7,025.1,000.0,037.7,030.4,32.6,0000.0,0011.64,0004.52,0003.44
2023-07-26 21:42:00,SystemResetWarning,0834.1,4.99,000.00,029.6,025.3,000.0,037.7,030.3,32.7,0000.0,0010.74,0004.52,0003.45
2023-07-26 21:43:00,SystemResetWarning,0834.1,5.00,000.00,029.6,025.7,000.0,037.7,030.3,32.3,0000.0,0010.44,0004.46,0003.43
2023-07-26 21:44:00,SystemResetWarning,0834.1,5.01,000.00,029.6,026.2,000.0,037.8,030.4,33.8,0000.0,0010.63,0004.33,0003.38
2023-07-26 21:45:00,SystemResetWarning,0834.1,5.00,000.00,029.6,026.7,000.0,037.8,030.6,32.2,0000.0,0010.66,0004.26,0003.32
2023-07-26 21:46:00,SystemResetWarning,0834.1,5.00,000.00,029.6,027.1,000.0,037.8,030.7,31.5,0000.0,0010.68,0004.17,0003.26
2023-07-26 21:47:00,SystemResetWarning,0834.1,5.00,000.00,029.6,027.0,000.0,037.8,030.7,32.4,0000.0,0010.88,0004.16,0003.22
2023-07-26 21:48:00,SystemResetWarning,0834.2,4.98,000.00,029.6,025.7,000.0,037.7,030.5,33.8,0000.0,0010.69,0004.17,0003.21
2023-07-26 21:49:00,SystemResetWarning,0834.1,5.04,000.00,029.6,024.9,000.0,037.6,030.4,34.3,0000.0,0011.12,0004.19,0003.20
2023-07-26 21:50:00,SystemResetWarning,0834.2,4.96,000.00,029.5,025.0,000.0,037.5,030.3,31.4,0000.0,0011.06,0004.17,0003.19
2023-07-26 21:51:00,SystemResetWarning,0834.2,5.02,000.00,029.5,025.4,000.0,037.6,030.2,31.8,0000.0,0010.88,0004.14,0003.16
2023-07-26 21:52:00,SystemResetWarning,0834.2,4.99,000.00,029.5,025.9,000.0,037.6,030.3,35.0,0000.0,0010.57,0004.06,0003.14
2023-07-26 21:53:00,SystemResetWarning,0834.4,5.02,000.00,029.6,026.4,000.0,037.6,030.5,34.7,0000.0,0010.44,0004.04,0003.12
2023-07-26 21:54:00,SystemResetWarning,0834.3,4.98,000.00,029.9,026.8,000.0,037.7,030.7,33.6,0000.0,0010.69,0004.04,0003.12
2023-07-26 21:55:00,SystemResetWarning,0834.4,5.00,000.00,030.0,027.1,000.0,037.7,030.8,34.8,0000.0,0010.53,0004.07,0003.14
2023-07-26 21:56:00,SystemResetWarning,0834.4,4.99,000.00,030.1,026.4,000.0,037.7,030.8,35.1,0000.0,0010.13,0004.16,0003.18
2023-07-26 21:57:00,SystemResetWarning,0834.4,5.01,000.00,030.3,025.2,000.0,037.6,030.7,35.3,0000.0,0010.20,0004.23,0003.23
2023-07-26 21:58:00,SystemResetWarning,0834.4,4.99,000.00,030.5,024.9,000.0,037.6,030.7,34.4,0000.0,0009.74,0004.25,0003.27
2023-07-26 21:59:00,SystemResetWarning,0834.4,4.99,000.00,030.5,025.2,000.0,037.7,030.5,34.0,0000.0,0009.67,0004.27,0003.29
